BLKT04 YPED-YPED

Flight info

Callsign BLKT04
Flight time 0h 13m
Altitude 32000
Route DOLVU W142 AD A585 AREPA H54 KAMBI Q32 SUPAS/N0465F340 Q32 NODEV Q10 MALUP Q158 PH/N0457F330 H18 HIDOT/N0457F350 H18 BURGU Y135 DADRU Y39 ATNAR
Aircraft P8/M-SADE2E3FGHIRWZ/LB1

Departure

Time 2026-04-27 09:35
Airport RAAF Base Edinburgh (YPED)

Arrival

Time 2026-04-27 09:49
Airport RAAF Base Edinburgh (YPED)
Time Latitude Longitude Altitude Speed Heading
2026-04-27 09:08 -34.71316 134.13719 37244 ft 480 kts 97°
2026-04-27 09:08 -34.71863 134.21376 37245 ft 479 kts 97°
2026-04-27 09:09 -34.72433 134.29423 37245 ft 478 kts 98°
2026-04-27 09:09 -34.73000 134.37499 37240 ft 477 kts 98°
2026-04-27 09:10 -34.73560 134.45554 37246 ft 477 kts 98°
2026-04-27 09:10 -34.74108 134.53532 37242 ft 476 kts 98°
2026-04-27 09:11 -34.74656 134.61582 37243 ft 475 kts 98°
2026-04-27 09:11 -34.75195 134.69572 37243 ft 475 kts 98°
2026-04-27 09:12 -34.75728 134.77541 37241 ft 474 kts 98°
2026-04-27 09:12 -34.76258 134.85553 37241 ft 474 kts 98°
2026-04-27 09:13 -34.76782 134.93553 37241 ft 474 kts 98°
2026-04-27 09:13 -34.77299 135.01530 37245 ft 474 kts 98°
2026-04-27 09:14 -34.77809 135.09531 37243 ft 473 kts 98°
2026-04-27 09:14 -34.78309 135.17480 37240 ft 473 kts 98°
2026-04-27 09:15 -34.78807 135.25478 37241 ft 473 kts 98°
2026-04-27 09:15 -34.79297 135.33429 37244 ft 472 kts 98°
2026-04-27 09:16 -34.79784 135.41398 37243 ft 472 kts 98°
2026-04-27 09:16 -34.80262 135.49321 37245 ft 471 kts 97°
2026-04-27 09:17 -34.80737 135.57273 37249 ft 471 kts 97°
2026-04-27 09:17 -34.81208 135.65250 37255 ft 471 kts 97°
2026-04-27 09:18 -34.81672 135.73197 37250 ft 471 kts 97°
2026-04-27 09:18 -34.82129 135.81093 37257 ft 470 kts 97°
2026-04-27 09:19 -34.82582 135.89031 37253 ft 470 kts 97°
2026-04-27 09:19 -34.83032 135.96983 37256 ft 470 kts 97°
2026-04-27 09:20 -34.83096 136.04955 37257 ft 472 kts 90°
2026-04-27 09:20 -34.82623 136.12923 37247 ft 473 kts 89°
2026-04-27 09:21 -34.82109 136.20914 37253 ft 473 kts 89°
2026-04-27 09:21 -34.81641 136.28908 37245 ft 473 kts 89°
2026-04-27 09:22 -34.81200 136.36842 37250 ft 472 kts 89°
2026-04-27 09:22 -34.80756 136.44852 37225 ft 473 kts 89°
2026-04-27 09:22 -34.80534 136.48837 36660 ft 480 kts 89°
2026-04-27 09:23 -34.80306 136.52882 36090 ft 477 kts 89°
2026-04-27 09:23 -34.80074 136.56929 35384 ft 478 kts 89°
2026-04-27 09:23 -34.79842 136.60968 34696 ft 478 kts 89°
2026-04-27 09:23 -34.79608 136.65016 33906 ft 479 kts 89°
2026-04-27 09:24 -34.79376 136.69016 33104 ft 480 kts 89°
2026-04-27 09:24 -34.79140 136.73064 32387 ft 478 kts 89°
2026-04-27 09:24 -34.78903 136.77078 31867 ft 473 kts 89°
2026-04-27 09:24 -34.78666 136.81058 31321 ft 468 kts 89°
2026-04-27 09:25 -34.78432 136.85000 30792 ft 464 kts 88°
2026-04-27 09:25 -34.78198 136.88910 30260 ft 460 kts 88°
2026-04-27 09:25 -34.77969 136.92730 29648 ft 456 kts 88°
2026-04-27 09:25 -34.77738 136.96556 29061 ft 451 kts 88°
2026-04-27 09:26 -34.77508 137.00344 28522 ft 445 kts 88°
2026-04-27 09:26 -34.77280 137.04089 27961 ft 441 kts 87°
2026-04-27 09:26 -34.77053 137.07798 27418 ft 436 kts 87°
2026-04-27 09:26 -34.76829 137.11430 26889 ft 432 kts 87°
2026-04-27 09:27 -34.76605 137.15063 26361 ft 428 kts 87°
2026-04-27 09:27 -34.76383 137.18633 25838 ft 424 kts 86°
2026-04-27 09:27 -34.76160 137.22208 25312 ft 421 kts 86°
2026-04-27 09:27 -34.75938 137.25749 24777 ft 418 kts 86°
2026-04-27 09:28 -34.75716 137.29277 24237 ft 416 kts 86°
2026-04-27 09:28 -34.75496 137.32743 23682 ft 414 kts 86°
2026-04-27 09:28 -34.75275 137.36217 23091 ft 411 kts 86°
2026-04-27 09:28 -34.75054 137.39677 22528 ft 407 kts 86°
2026-04-27 09:29 -34.74835 137.43087 21993 ft 403 kts 86°
2026-04-27 09:29 -34.74616 137.46476 21471 ft 399 kts 86°
2026-04-27 09:29 -34.74399 137.49833 20948 ft 395 kts 86°
2026-04-27 09:29 -34.74256 137.52034 20607 ft 393 kts 86°
2026-04-27 09:30 -34.73972 137.56408 19929 ft 389 kts 85°
2026-04-27 09:30 -34.73757 137.59681 19397 ft 387 kts 85°
2026-04-27 09:30 -34.73615 137.61839 19049 ft 385 kts 85°
2026-04-27 09:30 -34.73596 137.66162 18258 ft 383 kts 102°
2026-04-27 09:31 -34.74041 137.68234 17831 ft 382 kts 107°
2026-04-27 09:31 -34.74821 137.71314 17244 ft 379 kts 108°
2026-04-27 09:31 -34.75881 137.75382 16529 ft 374 kts 108°
2026-04-27 09:31 -34.76643 137.78346 16013 ft 370 kts 107°
2026-04-27 09:32 -34.77402 137.81342 15501 ft 367 kts 107°
2026-04-27 09:32 -34.77892 137.83303 15171 ft 365 kts 107°
2026-04-27 09:32 -34.78622 137.86243 14658 ft 362 kts 107°
2026-04-27 09:32 -34.79341 137.89159 14148 ft 359 kts 107°
2026-04-27 09:33 -34.80054 137.92061 13596 ft 356 kts 107°
2026-04-27 09:33 -34.80758 137.94932 13079 ft 352 kts 107°
2026-04-27 09:33 -34.81454 137.97772 12600 ft 347 kts 106°
2026-04-27 09:33 -34.82140 138.00575 12121 ft 342 kts 106°
2026-04-27 09:34 -34.82816 138.03340 11645 ft 338 kts 106°
2026-04-27 09:34 -34.83484 138.06072 11168 ft 335 kts 106°
2026-04-27 09:34 -34.84142 138.08772 10747 ft 330 kts 106°
2026-04-27 09:34 -34.84779 138.11382 10430 ft 322 kts 106°
2026-04-27 09:35 -34.85213 138.13998 10233 ft 309 kts 90°
2026-04-27 09:35 -34.85011 138.16547 10118 ft 296 kts 82°
2026-04-27 09:35 -34.84698 138.18982 9936 ft 285 kts 81°
2026-04-27 09:35 -34.84408 138.21235 9676 ft 278 kts 81°
2026-04-27 09:36 -34.84103 138.23593 9262 ft 279 kts 76°
2026-04-27 09:36 -34.83338 138.25717 9104 ft 270 kts 53°
2026-04-27 09:36 -34.82099 138.27363 9027 ft 257 kts 43°
2026-04-27 09:36 -34.80828 138.28826 8994 ft 244 kts 42°
2026-04-27 09:37 -34.79624 138.30195 8932 ft 230 kts 41°
2026-04-27 09:37 -34.78480 138.31500 8660 ft 223 kts 41°
2026-04-27 09:37 -34.77346 138.32800 8233 ft 224 kts 41°
2026-04-27 09:37 -34.76182 138.34135 7720 ft 234 kts 40°
2026-04-27 09:38 -34.74983 138.35516 7651 ft 249 kts 40°
2026-04-27 09:38 -34.73683 138.37017 7478 ft 263 kts 40°
2026-04-27 09:38 -34.72340 138.38572 7280 ft 267 kts 40°
2026-04-27 09:38 -34.71011 138.40113 7070 ft 267 kts 40°
2026-04-27 09:39 -34.69679 138.41661 6865 ft 262 kts 40°
2026-04-27 09:39 -34.68363 138.43177 6654 ft 258 kts 38°
2026-04-27 09:39 -34.66871 138.44313 6450 ft 252 kts 19°
2026-04-27 09:39 -34.65258 138.45123 6265 ft 251 kts 19°
2026-04-27 09:40 -34.63644 138.45935 6068 ft 251 kts 20°
2026-04-27 09:40 -34.62031 138.46755 5882 ft 250 kts 20°
2026-04-27 09:40 -34.60445 138.47570 5682 ft 250 kts 20°
2026-04-27 09:40 -34.58845 138.48398 5504 ft 250 kts 21°
2026-04-27 09:41 -34.57239 138.49229 5313 ft 250 kts 21°
2026-04-27 09:41 -34.55638 138.50059 5134 ft 250 kts 22°
2026-04-27 09:41 -34.54037 138.50888 4972 ft 248 kts 21°
2026-04-27 09:41 -34.52455 138.51702 4851 ft 246 kts 21°
2026-04-27 09:42 -34.50901 138.52498 4731 ft 244 kts 22°
2026-04-27 09:42 -34.49339 138.53299 4619 ft 243 kts 22°
2026-04-27 09:42 -34.47785 138.54095 4510 ft 243 kts 22°
2026-04-27 09:42 -34.46226 138.54893 4401 ft 244 kts 22°
2026-04-27 09:43 -34.44796 138.56028 4260 ft 248 kts 47°
2026-04-27 09:43 -34.43988 138.57863 4170 ft 251 kts 74°
2026-04-27 09:43 -34.43894 138.59980 4075 ft 254 kts 92°
2026-04-27 09:43 -34.44120 138.62115 3950 ft 256 kts 99°
2026-04-27 09:44 -34.44857 138.64054 3814 ft 261 kts 128°
2026-04-27 09:44 -34.46317 138.65357 3706 ft 265 kts 158°
2026-04-27 09:44 -34.48138 138.65674 3598 ft 266 kts 182°
2026-04-27 09:44 -34.49944 138.65412 3467 ft 257 kts 188°
2026-04-27 09:45 -34.51678 138.65065 3332 ft 248 kts 188°
2026-04-27 09:45 -34.53369 138.64715 3078 ft 246 kts 188°
2026-04-27 09:45 -34.55004 138.64389 3013 ft 236 kts 187°
2026-04-27 09:45 -34.56583 138.64088 2978 ft 226 kts 187°
2026-04-27 09:46 -34.58192 138.63798 2331 ft 234 kts 186°
2026-04-27 09:46 -34.59735 138.63519 2029 ft 216 kts 185°
2026-04-27 09:46 -34.61162 138.63259 1744 ft 198 kts 184°
2026-04-27 09:46 -34.62468 138.63022 1476 ft 182 kts 185°
2026-04-27 09:47 -34.63655 138.62807 1277 ft 167 kts 185°
2026-04-27 09:47 -34.64780 138.62605 1082 ft 164 kts 185°
2026-04-27 09:47 -34.65878 138.62405 842 ft 152 kts 187°
2026-04-27 09:47 -34.66907 138.62191 572 ft 149 kts 186°
2026-04-27 09:48 -34.67916 138.61997 407 ft 147 kts 188°
2026-04-27 09:48 -34.68781 138.61864 285 ft 148 kts 185°
2026-04-27 09:48 -34.69765 138.61696 67 ft 136 kts 186°
2026-04-27 09:48 -34.70612 138.61548 64 ft 106 kts 188°
2026-04-27 09:49 -34.71222 138.61437 55 ft 71 kts 188°
2026-04-27 09:49 -34.71598 138.61370 56 ft 30 kts 188°
2026-04-27 09:49 -34.71739 138.61458 54 ft 26 kts 98°
2026-04-27 09:49 -34.71729 138.61658 50 ft 24 kts 52°
2026-04-27 09:50 -34.71611 138.61792 50 ft 23 kts 41°
2026-04-27 09:50 -34.71494 138.61919 53 ft 22 kts 42°
2026-04-27 09:50 -34.71383 138.62040 53 ft 21 kts 41°
2026-04-27 09:50 -34.71274 138.62161 57 ft 21 kts 42°
2026-04-27 09:51 -34.71168 138.62277 56 ft 20 kts 42°
2026-04-27 09:51 -34.71064 138.62389 58 ft 20 kts 41°
2026-04-27 09:51 -34.70963 138.62520 58 ft 23 kts 66°
2026-04-27 09:51 -34.71002 138.62696 54 ft 22 kts 118°
2026-04-27 09:52 -34.71035 138.62823 54 ft 12 kts 47°
2026-04-27 09:52 -34.71004 138.62846 53 ft 0 kts 27°